Home > Weather > Foz do Iguaçu > Past weeks

Flag for Brazil Weather for the Past 2 Weeks in Foz do Iguaçu, Paraná, Brazil

Now
54 °F

Clear.


Feels Like: 54 °F
Forecast: N/A
Wind: 2 mph from Southwest

Location: Foz Do Iguacu Aeroporto

Current Time: Apr 30, 2016 at 7:43:15 PM

Latest Report: Apr 30, 2016 at 7:00 PM


Visibility: 10 mi

Pressure: 30.15 "Hg

Humidity: 77%

Dew Point: 46 °F

Location of Foz do IguaçuLocation

Historic Weather in Foz do Iguaçu — Graph

°F

Foz do Iguaçu Temperature Yesterday

Maximum temperature yesterday: 66 °F (at 3:00 PM)
Minimum temperature yesterday: 45 °F (at 7:00 AM)
Average temperature yesterday: 54 °F

High & Low Weather Summary for the Past Weeks

 TemperatureHumidityPressure
High93 °F (Apr 17, 2:00 PM)100% (Apr 25, 11:00 AM)30.27 "Hg (Apr 25, 11:00 AM)
Low32 °F (Apr 25, 11:00 AM)28% (Apr 25, 6:00 PM)29.62 "Hg (Apr 25, 4:00 PM)
Average70 °F74%29.95 "Hg
* Reported Apr 15 6:00 PM — Apr 30 6:00 PM, Foz do Iguaçu, Weather by CustomWeather, © 2016

Note: Actual official high and low records may vary slightly from our data, if they occured in-between our weather recording intervals... More about our weather records

Advertising

Foz do Iguaçu Weather History for the Previous 24 Hours

Scroll right to see more
 ConditionsComfort  
Time TempWeatherWind HumidityBarometerVisibility
6:00 PM
Sat, Apr 30
59 °FClear.2 mph63%30.12 "Hg10 mi
5:00 PM63 °FSunny.5 mph49%30.12 "Hg10 mi
4:00 PM64 °FSunny.6 mph46%30.12 "Hg10 mi
3:00 PM64 °FSunny.8 mph46%30.15 "Hg10 mi
2:00 PM64 °FSunny.6 mph46%30.15 "Hg10 mi
1:00 PM63 °FSunny.9 mph49%30.18 "Hg10 mi
12:00 PM61 °FSunny.9 mph52%30.21 "Hg10 mi
11:00 AM57 °FSunny.9 mph59%30.21 "Hg10 mi
10:00 AM54 °FSunny.10 mph67%30.21 "Hg10 mi
9:00 AM52 °FSunny.7 mph77%30.21 "Hg10 mi
8:00 AM48 °FSunny.5 mph87%30.18 "Hg10 mi
7:00 AM43 °FSunny.6 mph100%30.18 "Hg10 mi
6:00 AM46 °FClear.7 mph87%30.15 "Hg10 mi
5:00 AM46 °FClear.6 mph93%30.15 "Hg10 mi
4:00 AM48 °FClear.2 mph94%30.15 "Hg10 mi
3:00 AM48 °FClear.5 mph94%30.15 "Hg10 mi
2:00 AM48 °FClear.3 mph87%30.15 "Hg10 mi
1:00 AM50 °FClear.3 mph88%30.15 "Hg10 mi
12:00 AM50 °FClear.7 mph88%30.15 "Hg10 mi
11:00 PM
Fri, Apr 29
52 °FClear.6 mph82%30.15 "Hg10 mi
10:00 PM54 °FClear.5 mph72%30.15 "Hg10 mi
9:00 PM54 °FClear.3 mph77%30.15 "Hg10 mi
8:00 PM54 °FClear.3 mph77%30.12 "Hg10 mi
7:00 PM55 °FClear.2 mph72%30.12 "Hg10 mi
Weather by CustomWeather, © 2016

See weather overviewHow to use our weather pages